| time (UTC) | temp F | wind direction | speed MPH | gust MPH | rain 1hr in | rain 24hr in | rain mn in | humidity % | barometer mb |
| 20260506173501 | 66 | 195 | 2.0 | 7.0 | 0.00 | 0.10 | 0.10 | 85 | 1011.7 |
| 20260506173015 | 66 | 126 | 1.0 | 8.0 | 0.00 | 0.10 | 0.10 | 85 | 1011.6 |
| 20260506172507 | 66 | 106 | 0.0 | 8.0 | 0.00 | 0.10 | 0.10 | 86 | 1011.6 |
| 20260506172004 | 65 | 118 | 0.0 | 2.0 | 0.00 | 0.10 | 0.10 | 86 | 1011.5 |
| 20260506171525 | 65 | 144 | 0.0 | 7.0 | 0.00 | 0.10 | 0.10 | 86 | 1011.6 |
| 20260506171010 | 65 | 196 | 0.0 | 7.0 | 0.00 | 0.10 | 0.10 | 86 | 1011.5 |
| 20260506170503 | 65 | 114 | 1.0 | 6.0 | 0.00 | 0.10 | 0.10 | 86 | 1011.4 |
| 20260506170016 | 65 | 178 | 0.0 | 6.0 | 0.00 | 0.10 | 0.10 | 87 | 1011.6 |
| 20260506165508 | 65 | 234 | 1.0 | 6.0 | 0.00 | 0.10 | 0.10 | 87 | 1012.0 |
| 20260506165005 | 65 | 61 | 0.0 | 4.0 | 0.00 | 0.10 | 0.10 | 87 | 1012.0 |
| 20260506164520 | 64 | 211 | 0.0 | 10.0 | 0.00 | 0.10 | 0.10 | 87 | 1011.8 |
| 20260506164013 | 64 | 102 | 0.0 | 10.0 | 0.00 | 0.10 | 0.10 | 87 | 1011.8 |
| 20260506163506 | 64 | 140 | 2.0 | 9.0 | 0.00 | 0.10 | 0.10 | 87 | 1012.0 |
| 20260506163018 | 64 | 296 | 1.0 | 3.0 | 0.00 | 0.10 | 0.10 | 88 | 1012.0 |
| 20260506162503 | 64 | 123 | 0.0 | 4.0 | 0.00 | 0.10 | 0.10 | 88 | 1012.1 |
| 20260506162005 | 64 | 188 | 0.0 | 4.0 | 0.00 | 0.10 | 0.10 | 88 | 1011.9 |
| 20260506161523 | 64 | 153 | 1.0 | 6.0 | 0.00 | 0.10 | 0.10 | 88 | 1011.7 |
| 20260506161003 | 63 | 218 | 1.0 | 7.0 | 0.00 | 0.10 | 0.10 | 89 | 1011.7 |
| 20260506160506 | 63 | 308 | 0.0 | 7.0 | 0.00 | 0.10 | 0.10 | 89 | 1011.7 |
| 20260506160032 | 63 | 115 | 2.0 | 10.0 | 0.00 | 0.10 | 0.10 | 89 | 1011.7 |
| 20260506155503 | 63 | 209 | 3.0 | 10.0 | 0.00 | 0.10 | 0.10 | 89 | 1011.7 |
| 20260506155004 | 63 | 186 | 1.0 | 9.0 | 0.00 | 0.10 | 0.10 | 89 | 1011.8 |
| 20260506154527 | 63 | 117 | 1.0 | 9.0 | 0.01 | 0.10 | 0.10 | 89 | 1011.9 |
| 20260506154004 | 63 | 94 | 0.0 | 9.0 | 0.01 | 0.10 | 0.10 | 90 | 1012.1 |
| 20260506153504 | 63 | 253 | 1.0 | 4.0 | 0.01 | 0.10 | 0.10 | 90 | 1012.1 |
| 20260506153021 | 63 | 127 | 1.0 | 6.0 | 0.03 | 0.10 | 0.10 | 90 | 1012.3 |
| 20260506152502 | 63 | 142 | 0.0 | 5.0 | 0.04 | 0.10 | 0.10 | 90 | 1012.4 |
| 20260506152005 | 63 | 178 | 1.0 | 4.0 | 0.05 | 0.10 | 0.10 | 90 | 1012.4 |
| 20260506151532 | 63 | 221 | 0.0 | 3.0 | 0.05 | 0.10 | 0.10 | 91 | 1012.4 |
| 20260506151002 | 63 | 113 | 0.0 | 4.0 | 0.07 | 0.10 | 0.10 | 91 | 1012.4 |
| 20260506150509 | 62 | 167 | 0.0 | 4.0 | 0.08 | 0.10 | 0.10 | 91 | 1012.5 |
| 20260506150029 | 62 | 190 | 0.0 | 4.0 | 0.09 | 0.10 | 0.10 | 91 | 1012.4 |
| 20260506145502 | 62 | 158 | 0.0 | 4.0 | 0.09 | 0.10 | 0.10 | 91 | 1012.4 |
| 20260506145008 | 62 | 190 | 0.0 | 4.0 | 0.09 | 0.10 | 0.10 | 91 | 1012.4 |
| 20260506144524 | 61 | 126 | 1.0 | 4.0 | 0.09 | 0.09 | 0.09 | 91 | 1012.4 |
| 20260506144009 | 61 | 144 | 0.0 | 3.0 | 0.09 | 0.09 | 0.09 | 90 | 1012.4 |
| 20260506143510 | 61 | 200 | 0.0 | 3.0 | 0.09 | 0.09 | 0.09 | 90 | 1012.5 |
| 20260506143038 | 62 | 147 | 0.0 | 3.0 | 0.07 | 0.07 | 0.07 | 89 | 1012.7 |
| 20260506142505 | 62 | 109 | 0.0 | 3.0 | 0.06 | 0.06 | 0.06 | 89 | 1012.8 |
| 20260506142009 | 62 | 175 | 0.0 | 2.0 | 0.05 | 0.05 | 0.05 | 88 | 1012.9 |
| 20260506141525 | 62 | 163 | 0.0 | 3.0 | 0.05 | 0.05 | 0.05 | 87 | 1012.8 |
| 20260506141006 | 63 | 121 | 0.0 | 3.0 | 0.03 | 0.03 | 0.03 | 87 | 1012.8 |
| 20260506140508 | 63 | 157 | 0.0 | 5.0 | 0.02 | 0.02 | 0.02 | 86 | 1012.7 |
| 20260506140032 | 63 | 175 | 0.0 | 5.0 | 0.01 | 0.01 | 0.01 | 85 | 1012.6 |
| 20260506135507 | 63 | 167 | 1.0 | 6.0 | 0.01 | 0.01 | 0.01 | 83 | 1012.5 |
| 20260506135009 | 64 | 121 | 1.0 | 6.0 | 0.01 | 0.01 | 0.01 | 82 | 1012.5 |
| 20260506134527 | 64 | 84 | 2.0 | 8.0 | 0.00 | 0.00 | 0.00 | 80 | 1012.5 |
| 20260506134006 | 65 | 163 | 0.0 | 8.0 | 0.00 | 0.00 | 0.00 | 78 | 1012.5 |
| 20260506133507 | 65 | 107 | 0.0 | 10.0 | 0.00 | 0.00 | 0.00 | 76 | 1012.6 |
| 20260506133026 | 65 | 143 | 0.0 | 10.0 | 0.00 | 0.00 | 0.00 | 76 | 1012.5 |
| 20260506132513 | 65 | 114 | 2.0 | 10.0 | 0.00 | 0.00 | 0.00 | 75 | 1012.5 |
| 20260506132009 | 65 | 211 | 3.0 | 8.0 | 0.00 | 0.00 | 0.00 | 75 | 1012.5 |
| 20260506131529 | 65 | 150 | 1.0 | 3.0 | 0.00 | 0.00 | 0.00 | 75 | 1012.5 |
| 20260506131008 | 65 | 95 | 0.0 | 4.0 | 0.00 | 0.00 | 0.00 | 75 | 1012.7 |
| 20260506130507 | 65 | 139 | 0.0 | 8.0 | 0.00 | 0.00 | 0.00 | 75 | 1012.6 |
| 20260506130025 | 65 | 194 | 1.0 | 8.0 | 0.00 | 0.00 | 0.00 | 75 | 1012.5 |
| 20260506125505 | 65 | 133 | 2.0 | 9.0 | 0.00 | 0.00 | 0.00 | 76 | 1012.4 |
| 20260506125008 | 65 | 143 | 1.0 | 9.0 | 0.00 | 0.00 | 0.00 | 76 | 1012.4 |
| 20260506124525 | 65 | 142 | 3.0 | 8.0 | 0.00 | 0.00 | 0.00 | 76 | 1012.3 |
| 20260506124006 | 65 | 203 | 1.0 | 6.0 | 0.00 | 0.00 | 0.00 | 76 | 1012.4 |
| 20260506123510 | 65 | 166 | 1.0 | 6.0 | 0.00 | 0.00 | 0.00 | 76 | 1012.4 |
| 20260506123025 | 64 | 108 | 0.0 | 9.0 | 0.00 | 0.00 | 0.00 | 76 | 1012.3 |
| 20260506122504 | 64 | 167 | 0.0 | 9.0 | 0.00 | 0.00 | 0.00 | 76 | 1012.3 |
| 20260506122012 | 64 | 67 | 1.0 | 8.0 | 0.00 | 0.00 | 0.00 | 76 | 1012.2 |
| 20260506121528 | 65 | 202 | 3.0 | 9.0 | 0.00 | 0.00 | 0.00 | 75 | 1012.2 |
| 20260506121009 | 65 | 122 | 2.0 | 9.0 | 0.00 | 0.00 | 0.00 | 75 | 1012.2 |
| 20260506120514 | 65 | 150 | 2.0 | 9.0 | 0.00 | 0.00 | 0.00 | 75 | 1012.2 |
| 20260506120026 | 65 | 206 | 2.0 | 7.0 | 0.00 | 0.00 | 0.00 | 75 | 1012.3 |
| 20260506115508 | 65 | 172 | 1.0 | 4.0 | 0.00 | 0.00 | 0.00 | 75 | 1012.2 |
| 20260506115006 | 65 | 185 | 0.0 | 5.0 | 0.00 | 0.00 | 0.00 | 75 | 1012.2 |
| 20260506114539 | 65 | 191 | 1.0 | 10.0 | 0.00 | 0.00 | 0.00 | 75 | 1012.2 |
| 20260506114007 | 65 | 126 | 3.0 | 10.0 | 0.00 | 0.00 | 0.00 | 75 | 1012.2 |
| 20260506113512 | 65 | 96 | 0.0 | 5.0 | 0.00 | 0.00 | 0.00 | 76 | 1012.2 |
| 20260506113030 | 64 | 92 | 0.0 | 5.0 | 0.00 | 0.00 | 0.00 | 76 | 1012.2 |
| 20260506112511 | 64 | 145 | 1.0 | 6.0 | 0.00 | 0.00 | 0.00 | 76 | 1012.2 |
| 20260506112008 | 64 | 198 | 2.0 | 6.0 | 0.00 | 0.00 | 0.00 | 75 | 1012.1 |
| 20260506111527 | 64 | 278 | 2.0 | 8.0 | 0.00 | 0.00 | 0.00 | 75 | 1012.1 |
| 20260506111008 | 64 | 160 | 3.0 | 8.0 | 0.00 | 0.00 | 0.00 | 75 | 1012.0 |
| 20260506110516 | 64 | 223 | 2.0 | 7.0 | 0.00 | 0.00 | 0.00 | 76 | 1011.9 |
| 20260506110034 | 64 | 205 | 2.0 | 7.0 | 0.00 | 0.00 | 0.00 | 75 | 1011.9 |
| 20260506105506 | 64 | 98 | 2.0 | 7.0 | 0.00 | 0.00 | 0.00 | 75 | 1012.1 |
| 20260506105013 | 64 | 170 | 1.0 | 6.0 | 0.00 | 0.00 | 0.00 | 75 | 1012.1 |
| 20260506104513 | 64 | 120 | 1.0 | 8.0 | 0.00 | 0.00 | 0.00 | 75 | 1012.2 |
| 20260506104010 | 64 | 146 | 1.0 | 8.0 | 0.00 | 0.00 | 0.00 | 75 | 1012.2 |
| 20260506103511 | 64 | 126 | 3.0 | 6.0 | 0.00 | 0.00 | 0.00 | 75 | 1012.2 |
| 20260506103017 | 64 | 175 | 1.0 | 4.0 | 0.00 | 0.00 | 0.00 | 75 | 1012.4 |
| 20260506102509 | 64 | 192 | 0.0 | 4.0 | 0.00 | 0.00 | 0.00 | 75 | 1012.5 |
| 20260506102012 | 63 | 194 | 1.0 | 6.0 | 0.00 | 0.00 | 0.00 | 75 | 1012.4 |
| 20260506101532 | 64 | 119 | 1.0 | 6.0 | 0.00 | 0.00 | 0.00 | 75 | 1012.3 |
| 20260506101012 | 64 | 193 | 0.0 | 4.0 | 0.00 | 0.00 | 0.00 | 75 | 1012.2 |
| 20260506100513 | 64 | 85 | 0.0 | 4.0 | 0.00 | 0.00 | 0.00 | 75 | 1012.2 |
| 20260506100015 | 64 | 56 | 1.0 | 4.0 | 0.00 | 0.00 | 0.00 | 75 | 1012.1 |
| 20260506095508 | 64 | 167 | 0.0 | 3.0 | 0.00 | 0.00 | 0.00 | 75 | 1012.1 |
| 20260506095011 | 64 | 239 | 0.0 | 3.0 | 0.00 | 0.00 | 0.00 | 75 | 1012.1 |
| 20260506094518 | 64 | 201 | 0.0 | 4.0 | 0.00 | 0.00 | 0.00 | 75 | 1012.1 |
| 20260506094010 | 64 | 194 | 1.0 | 6.0 | 0.00 | 0.00 | 0.00 | 75 | 1012.1 |
| 20260506093514 | 64 | 119 | 0.0 | 8.0 | 0.00 | 0.00 | 0.00 | 75 | 1012.1 |
| 20260506093020 | 64 | 134 | 2.0 | 8.0 | 0.00 | 0.00 | 0.00 | 75 | 1012.0 |
| 20260506092508 | 64 | 215 | 2.0 | 8.0 | 0.00 | 0.00 | 0.00 | 75 | 1012.0 |
| 20260506092014 | 64 | 116 | 2.0 | 4.0 | 0.00 | 0.00 | 0.00 | 75 | 1012.0 |
| 20260506091522 | 64 | 153 | 0.0 | 7.0 | 0.00 | 0.00 | 0.00 | 76 | 1012.0 |
| 20260506091010 | 64 | 194 | 1.0 | 7.0 | 0.00 | 0.00 | 0.00 | 76 | 1012.0 |
| 20260506090507 | 64 | 146 | 2.0 | 7.0 | 0.00 | 0.00 | 0.00 | 76 | 1012.1 |
| 20260506090022 | 64 | 150 | 1.0 | 7.0 | 0.00 | 0.00 | 0.00 | 76 | 1012.2 |
| 20260506085502 | 64 | 142 | 0.0 | 6.0 | 0.00 | 0.00 | 0.00 | 76 | 1012.2 |
| 20260506085009 | 64 | 163 | 2.0 | 9.0 | 0.00 | 0.00 | 0.00 | 76 | 1012.2 |
| 20260506084512 | 64 | 158 | 1.0 | 10.0 | 0.00 | 0.00 | 0.00 | 76 | 1012.2 |
| 20260506084003 | 64 | 153 | 2.0 | 10.0 | 0.00 | 0.00 | 0.00 | 76 | 1012.3 |
| 20260506083508 | 64 | 169 | 1.0 | 8.0 | 0.00 | 0.00 | 0.00 | 76 | 1012.3 |
| 20260506083003 | 64 | 198 | 1.0 | 5.0 | 0.00 | 0.00 | 0.00 | 76 | 1012.4 |
| 20260506082503 | 64 | 201 | 0.0 | 5.0 | 0.00 | 0.00 | 0.00 | 76 | 1012.4 |
| 20260506082007 | 64 | 154 | 1.0 | 5.0 | 0.00 | 0.00 | 0.00 | 75 | 1012.5 |
| 20260506081507 | 64 | 203 | 0.0 | 3.0 | 0.00 | 0.00 | 0.00 | 75 | 1012.5 |
| 20260506081003 | 64 | 132 | 0.0 | 9.0 | 0.00 | 0.00 | 0.00 | 75 | 1012.4 |
| 20260506080511 | 64 | 138 | 2.0 | 9.0 | 0.00 | 0.00 | 0.00 | 75 | 1012.4 |
| 20260506073509 | 65 | 117 | 1.0 | 14.0 | 0.00 | 0.00 | 0.00 | 74 | 1012.5 |
| 20260506073004 | 65 | 107 | 3.0 | 14.0 | 0.00 | 0.00 | 0.00 | 73 | 1012.4 |
| 20260506072513 | 65 | 165 | 1.0 | 9.0 | 0.00 | 0.00 | 0.00 | 73 | 1012.4 |
| 20260506072010 | 65 | 207 | 1.0 | 6.0 | 0.00 | 0.00 | 0.00 | 73 | 1012.5 |
| 20260506071503 | 65 | 101 | 1.0 | 6.0 | 0.00 | 0.00 | 0.00 | 72 | 1012.5 |
| 20260506071008 | 65 | 198 | 1.0 | 6.0 | 0.00 | 0.00 | 0.00 | 72 | 1012.5 |
| 20260506070506 | 65 | 233 | 2.0 | 6.0 | 0.00 | 0.00 | 0.00 | 72 | 1012.5 |
| 20260506062511 | 66 | 155 | 2.0 | 9.0 | 0.00 | 0.00 | 0.00 | 71 | 1012.8 |
| 20260506062009 | 66 | 166 | 2.0 | 9.0 | 0.00 | 0.00 | 0.00 | 70 | 1012.9 |
| 20260506061504 | 66 | 157 | 3.0 | 7.0 | 0.00 | 0.00 | 0.00 | 70 | 1012.8 |
| 20260506061011 | 66 | 126 | 1.0 | 9.0 | 0.00 | 0.00 | 0.00 | 70 | 1012.7 |
| 20260506060507 | 67 | 199 | 2.0 | 9.0 | 0.00 | 0.00 | 0.00 | 70 | 1012.8 |
| 20260506051009 | 68 | 128 | 3.0 | 9.0 | 0.00 | 0.00 | 0.00 | 68 | 1013.2 |
| 20260506050508 | 68 | 153 | 2.0 | 8.0 | 0.00 | 0.00 | 0.00 | 68 | 1013.1 |
| 20260506045004 | 68 | 212 | 2.0 | 7.0 | 0.00 | 0.00 | 0.00 | 67 | 1013.3 |
| 20260506044511 | 68 | 180 | 1.0 | 7.0 | 0.00 | 0.00 | 0.00 | 66 | 1013.4 |
| 20260506044017 | 68 | 158 | 2.0 | 7.0 | 0.00 | 0.00 | 0.00 | 66 | 1013.4 |
| 20260506043503 | 68 | 131 | 1.0 | 6.0 | 0.00 | 0.00 | 0.00 | 65 | 1013.5 |
| 20260506043012 | 69 | 103 | 2.0 | 9.0 | 0.00 | 0.00 | 0.00 | 65 | 1013.5 |
| 20260506042506 | 69 | 344 | 1.0 | 9.0 | 0.00 | 0.00 | 0.00 | 64 | 1013.5 |
| 20260506042007 | 69 | 117 | 3.0 | 9.0 | 0.00 | 0.00 | 0.00 | 64 | 1013.4 |
| 20260506041525 | 69 | 169 | 2.0 | 7.0 | 0.00 | 0.00 | 0.00 | 63 | 1013.4 |
| 20260506041009 | 70 | 145 | 1.0 | 7.0 | 0.00 | 0.00 | 0.00 | 62 | 1013.5 |
| 20260506040502 | 70 | 101 | 1.0 | 7.0 | 0.00 | 0.00 | 0.00 | 62 | 1013.5 |
| 20260506040014 | 70 | 206 | 2.0 | 7.0 | 0.00 | 0.00 | 0.00 | 61 | 1013.4 |
| 20260506035508 | 70 | 139 | 1.0 | 12.0 | 0.00 | 0.00 | 0.00 | 61 | 1013.4 |
| 20260506035004 | 70 | 189 | 0.0 | 13.0 | 0.00 | 0.00 | 0.00 | 60 | 1013.3 |
| 20260506034515 | 70 | 156 | 4.0 | 13.0 | 0.00 | 0.00 | 0.00 | 60 | 1013.4 |
| 20260506034009 | 71 | 112 | 1.0 | 9.0 | 0.00 | 0.00 | 0.00 | 60 | 1013.3 |
| 20260506033503 | 71 | 211 | 1.0 | 9.0 | 0.00 | 0.00 | 0.00 | 60 | 1013.3 |
| 20260506033017 | 71 | 71 | 3.0 | 8.0 | 0.00 | 0.00 | 0.00 | 60 | 1013.4 |
| 20260506032513 | 71 | 181 | 2.0 | 8.0 | 0.00 | 0.00 | 0.00 | 59 | 1013.3 |
| 20260506032007 | 71 | 65 | 2.0 | 7.0 | 0.00 | 0.00 | 0.00 | 60 | 1013.4 |
| 20260506031523 | 71 | 142 | 1.0 | 8.0 | 0.00 | 0.00 | 0.00 | 59 | 1013.4 |
| 20260506031009 | 71 | 107 | 2.0 | 8.0 | 0.00 | 0.00 | 0.00 | 59 | 1013.3 |
| 20260506030508 | 71 | 186 | 2.0 | 6.0 | 0.00 | 0.00 | 0.00 | 58 | 1013.3 |
| 20260506030023 | 71 | 200 | 1.0 | 5.0 | 0.00 | 0.00 | 0.00 | 58 | 1013.3 |
| 20260506025508 | 71 | 148 | 0.0 | 4.0 | 0.00 | 0.00 | 0.00 | 58 | 1013.3 |
| 20260506025009 | 71 | 136 | 0.0 | 7.0 | 0.00 | 0.00 | 0.00 | 58 | 1013.3 |
| 20260506024520 | 71 | 111 | 2.0 | 7.0 | 0.00 | 0.00 | 0.00 | 58 | 1013.3 |
| 20260506024010 | 71 | 175 | 0.0 | 4.0 | 0.00 | 0.00 | 0.00 | 57 | 1013.4 |
| 20260506023505 | 71 | 162 | 1.0 | 6.0 | 0.00 | 0.00 | 0.00 | 57 | 1013.4 |
| 20260506023018 | 72 | 119 | 0.0 | 6.0 | 0.00 | 0.00 | 0.00 | 57 | 1013.3 |
| 20260506022509 | 72 | 192 | 1.0 | 8.0 | 0.00 | 0.00 | 0.00 | 57 | 1013.4 |
| 20260506022004 | 72 | 143 | 1.0 | 8.0 | 0.00 | 0.00 | 0.00 | 56 | 1013.3 |
| 20260506021520 | 72 | 186 | 0.0 | 5.0 | 0.00 | 0.00 | 0.00 | 56 | 1013.3 |
| 20260506021010 | 72 | 163 | 1.0 | 7.0 | 0.00 | 0.00 | 0.00 | 55 | 1013.3 |
| 20260506020510 | 72 | 110 | 2.0 | 9.0 | 0.00 | 0.00 | 0.00 | 55 | 1013.3 |
| 20260506020024 | 72 | 163 | 2.0 | 9.0 | 0.00 | 0.00 | 0.00 | 55 | 1013.3 |
| 20260506015510 | 72 | 145 | 2.0 | 6.0 | 0.00 | 0.00 | 0.00 | 54 | 1013.2 |
| 20260506015006 | 73 | 127 | 0.0 | 5.0 | 0.00 | 0.00 | 0.00 | 54 | 1013.2 |
| 20260506014532 | 73 | 136 | 1.0 | 8.0 | 0.00 | 0.00 | 0.00 | 54 | 1013.1 |
| 20260506014009 | 73 | 114 | 1.0 | 8.0 | 0.00 | 0.00 | 0.00 | 54 | 1013.1 |
| 20260506013506 | 73 | 71 | 0.0 | 9.0 | 0.00 | 0.00 | 0.00 | 54 | 1013.1 |
| 20260506013028 | 73 | 189 | 0.0 | 9.0 | 0.00 | 0.00 | 0.00 | 54 | 1013.0 |
| 20260506012510 | 73 | 131 | 1.0 | 8.0 | 0.00 | 0.00 | 0.00 | 53 | 1013.0 |
| 20260506012008 | 73 | 117 | 0.0 | 7.0 | 0.00 | 0.00 | 0.00 | 53 | 1012.9 |
| 20260506011528 | 74 | 184 | 0.0 | 7.0 | 0.00 | 0.00 | 0.00 | 52 | 1012.7 |
| 20260506011008 | 74 | 148 | 1.0 | 8.0 | 0.00 | 0.00 | 0.00 | 52 | 1012.7 |
| 20260506010505 | 74 | 112 | 0.0 | 8.0 | 0.00 | 0.00 | 0.00 | 51 | 1012.7 |
| 20260506010027 | 74 | 157 | 1.0 | 7.0 | 0.00 | 0.00 | 0.00 | 52 | 1012.6 |
| 20260506005510 | 74 | 150 | 1.0 | 7.0 | 0.00 | 0.00 | 0.00 | 51 | 1012.5 |
| 20260506005010 | 74 | 192 | 1.0 | 8.0 | 0.00 | 0.00 | 0.00 | 50 | 1012.5 |
| 20260506004535 | 74 | 150 | 2.0 | 8.0 | 0.00 | 0.00 | 0.00 | 50 | 1012.4 |
| 20260506004010 | 75 | 157 | 2.0 | 7.0 | 0.00 | 0.00 | 0.00 | 50 | 1012.4 |
| 20260506003507 | 75 | 173 | 1.0 | 7.0 | 0.00 | 0.00 | 0.00 | 50 | 1012.3 |
| 20260506003024 | 75 | 168 | 2.0 | 6.0 | 0.00 | 0.00 | 0.00 | 49 | 1012.2 |
| 20260506002511 | 75 | 157 | 1.0 | 6.0 | 0.00 | 0.00 | 0.00 | 49 | 1012.2 |
| 20260506002007 | 75 | 136 | 1.0 | 6.0 | 0.00 | 0.00 | 0.00 | 49 | 1012.3 |
| 20260506001524 | 75 | 175 | 0.0 | 6.0 | 0.00 | 0.00 | 0.00 | 49 | 1012.2 |
| 20260506001008 | 76 | 115 | 2.0 | 6.0 | 0.00 | 0.00 | 0.00 | 48 | 1012.2 |
| 20260506000509 | 76 | 169 | 0.0 | 5.0 | 0.00 | 0.00 | 0.00 | 48 | 1012.1 |
| 20260506000034 | 76 | 192 | 1.0 | 5.0 | 0.00 | 0.00 | 0.00 | 47 | 1012.1 |
| 20260505235511 | 76 | 189 | 0.0 | 4.0 | 0.00 | 0.00 | 0.00 | 47 | 1012.1 |
| 20260505235003 | 77 | 187 | 0.0 | 9.0 | 0.00 | 0.00 | 0.00 | 47 | 1012.1 |
| 20260505234512 | 77 | 119 | 0.0 | 9.0 | 0.00 | 0.00 | 0.00 | 46 | 1012.1 |
| 20260505234003 | 77 | 190 | 2.0 | 9.0 | 0.00 | 0.00 | 0.00 | 45 | 1012.0 |
| 20260505233506 | 77 | 169 | 2.0 | 5.0 | 0.00 | 0.00 | 0.00 | 45 | 1011.9 |
| 20260505233004 | 77 | 188 | 1.0 | 5.0 | 0.00 | 0.00 | 0.00 | 45 | 1012.0 |
| 20260505232509 | 77 | 322 | 1.0 | 8.0 | 0.00 | 0.00 | 0.00 | 45 | 1011.9 |
| 20260505232004 | 77 | 164 | 1.0 | 8.0 | 0.00 | 0.00 | 0.00 | 45 | 1011.9 |
| 20260505231506 | 77 | 150 | 1.0 | 3.0 | 0.00 | 0.00 | 0.00 | 44 | 1012.1 |
| 20260505231004 | 77 | 74 | 0.0 | 5.0 | 0.00 | 0.00 | 0.00 | 44 | 1011.9 |
| 20260505230503 | 78 | 130 | 1.0 | 4.0 | 0.00 | 0.00 | 0.00 | 44 | 1011.9 |
| 20260505230005 | 78 | 150 | 0.0 | 3.0 | 0.00 | 0.00 | 0.00 | 43 | 1011.9 |
| 20260505225506 | 78 | 183 | 0.0 | 3.0 | 0.00 | 0.00 | 0.00 | 43 | 1012.0 |
| 20260505225004 | 79 | 117 | 0.0 | 7.0 | 0.00 | 0.00 | 0.00 | 42 | 1012.0 |
| 20260505224507 | 79 | 117 | 0.0 | 7.0 | 0.00 | 0.00 | 0.00 | 42 | 1012.1 |
| 20260505224007 | 79 | 211 | 2.0 | 9.0 | 0.00 | 0.00 | 0.00 | 41 | 1012.2 |
| 20260505223505 | 79 | 123 | 2.0 | 9.0 | 0.00 | 0.00 | 0.00 | 40 | 1012.1 |
| 20260505223009 | 79 | 134 | 4.0 | 9.0 | 0.00 | 0.00 | 0.00 | 40 | 1012.0 |
| 20260505222507 | 79 | 207 | 1.0 | 5.0 | 0.00 | 0.00 | 0.00 | 41 | 1012.1 |
| 20260505222005 | 80 | 212 | 1.0 | 12.0 | 0.00 | 0.00 | 0.00 | 41 | 1012.0 |
| 20260505221508 | 80 | 138 | 2.0 | 12.0 | 0.00 | 0.00 | 0.00 | 39 | 1011.9 |
| 20260505221006 | 80 | 94 | 2.0 | 12.0 | 0.00 | 0.00 | 0.00 | 39 | 1011.8 |
| 20260505220503 | 80 | 143 | 1.0 | 9.0 | 0.00 | 0.00 | 0.00 | 38 | 1011.9 |
| 20260505220023 | 80 | 190 | 2.0 | 9.0 | 0.00 | 0.00 | 0.00 | 38 | 1011.9 |
| 20260505215510 | 80 | 100 | 1.0 | 5.0 | 0.00 | 0.00 | 0.00 | 37 | 1011.9 |
| 20260505215004 | 80 | 205 | 2.0 | 7.0 | 0.00 | 0.00 | 0.00 | 37 | 1012.0 |
| 20260505214514 | 81 | 122 | 2.0 | 9.0 | 0.00 | 0.00 | 0.00 | 35 | 1011.9 |
| 20260505214010 | 80 | 80 | 1.0 | 9.0 | 0.00 | 0.00 | 0.00 | 36 | 1011.9 |
| 20260505213502 | 80 | 179 | 1.0 | 8.0 | 0.00 | 0.00 | 0.00 | 37 | 1012.0 |
| 20260505213012 | 80 | 182 | 0.0 | 9.0 | 0.00 | 0.00 | 0.00 | 36 | 1011.9 |
| 20260505212509 | 80 | 225 | 1.0 | 10.0 | 0.00 | 0.00 | 0.00 | 34 | 1011.9 |
| 20260505212002 | 80 | 203 | 2.0 | 10.0 | 0.00 | 0.00 | 0.00 | 34 | 1012.0 |
| 20260505211512 | 81 | 159 | 2.0 | 10.0 | 0.00 | 0.00 | 0.00 | 34 | 1012.1 |
| 20260505211009 | 81 | 84 | 3.0 | 10.0 | 0.00 | 0.00 | 0.00 | 33 | 1012.0 |
| 20260505210503 | 82 | 144 | 2.0 | 9.0 | 0.00 | 0.00 | 0.00 | 35 | 1012.0 |
| 20260505210015 | 82 | 107 | 2.0 | 9.0 | 0.00 | 0.00 | 0.00 | 35 | 1012.0 |
| 20260505205515 | 82 | 111 | 4.0 | 12.0 | 0.00 | 0.00 | 0.00 | 34 | 1012.0 |
| 20260505205006 | 82 | 236 | 1.0 | 12.0 | 0.00 | 0.00 | 0.00 | 33 | 1011.9 |
| 20260505204524 | 82 | 166 | 3.0 | 9.0 | 0.00 | 0.00 | 0.00 | 33 | 1011.9 |
| 20260505204008 | 82 | 206 | 1.0 | 9.0 | 0.00 | 0.00 | 0.00 | 35 | 1011.8 |
| 20260505203502 | 82 | 159 | 2.0 | 9.0 | 0.00 | 0.00 | 0.00 | 34 | 1011.8 |
| 20260505203016 | 82 | 146 | 0.0 | 10.0 | 0.00 | 0.00 | 0.00 | 34 | 1011.8 |
| 20260505202509 | 82 | 125 | 2.0 | 10.0 | 0.00 | 0.00 | 0.00 | 33 | 1011.9 |
| 20260505202006 | 83 | 211 | 3.0 | 10.0 | 0.00 | 0.00 | 0.00 | 32 | 1011.9 |
| 20260505201517 | 83 | 101 | 3.0 | 10.0 | 0.00 | 0.00 | 0.00 | 33 | 1011.9 |
| 20260505201009 | 83 | 198 | 4.0 | 10.0 | 0.00 | 0.00 | 0.00 | 33 | 1011.9 |
| 20260505200506 | 84 | 152 | 4.0 | 11.0 | 0.00 | 0.00 | 0.00 | 35 | 1011.8 |
| 20260505200017 | 84 | 34 | 2.0 | 14.0 | 0.00 | 0.00 | 0.00 | 34 | 1011.9 |
| 20260505195511 | 84 | 177 | 1.0 | 14.0 | 0.00 | 0.00 | 0.00 | 34 | 1012.0 |
| 20260505195003 | 84 | 209 | 3.0 | 11.0 | 0.00 | 0.00 | 0.00 | 35 | 1012.1 |
| 20260505194519 | 84 | 154 | 2.0 | 11.0 | 0.00 | 0.00 | 0.00 | 34 | 1012.2 |
| 20260505194017 | 84 | 136 | 4.0 | 12.0 | 0.00 | 0.00 | 0.00 | 34 | 1012.3 |
| 20260505193503 | 84 | 195 | 2.0 | 12.0 | 0.00 | 0.00 | 0.00 | 33 | 1012.2 |
| 20260505193038 | 84 | 153 | 1.0 | 13.0 | 0.00 | 0.00 | 0.00 | 32 | 1012.4 |
| 20260505192509 | 83 | 204 | 1.0 | 13.0 | 0.00 | 0.00 | 0.00 | 34 | 1012.5 |
| 20260505192005 | 83 | 261 | 3.0 | 10.0 | 0.00 | 0.00 | 0.00 | 32 | 1012.5 |
| 20260505191519 | 83 | 186 | 2.0 | 12.0 | 0.00 | 0.00 | 0.00 | 34 | 1012.5 |
| 20260505191009 | 83 | 184 | 2.0 | 12.0 | 0.00 | 0.00 | 0.00 | 34 | 1012.6 |
| 20260505190506 | 83 | 227 | 2.0 | 12.0 | 0.00 | 0.00 | 0.00 | 34 | 1012.7 |
| 20260505190030 | 85 | 285 | 2.0 | 7.0 | 0.00 | 0.00 | 0.00 | 37 | 1012.9 |
| 20260505185515 | 84 | 121 | 3.0 | 8.0 | 0.00 | 0.00 | 0.00 | 37 | 1012.8 |
| 20260505185007 | 83 | 190 | 0.0 | 8.0 | 0.00 | 0.00 | 0.00 | 39 | 1013.0 |
| 20260505184525 | 84 | 11 | 1.0 | 7.0 | 0.00 | 0.00 | 0.00 | 33 | 1013.1 |
| 20260505184004 | 84 | 252 | 2.0 | 11.0 | 0.00 | 0.00 | 0.00 | 36 | 1013.2 |
| 20260505183507 | 83 | 204 | 3.0 | 11.0 | 0.00 | 0.00 | 0.00 | 31 | 1013.2 |
| 20260505183036 | 83 | 109 | 4.0 | 10.0 | 0.00 | 0.00 | 0.00 | 34 | 1013.2 |
| 20260505182503 | 83 | 173 | 3.0 | 10.0 | 0.00 | 0.00 | 0.00 | 33 | 1013.2 |
| 20260505182007 | 83 | 352 | 2.0 | 10.0 | 0.00 | 0.00 | 0.00 | 36 | 1013.4 |
| 20260505181524 | 82 | 174 | 3.0 | 9.0 | 0.00 | 0.00 | 0.00 | 35 | 1013.4 |
| 20260505181006 | 83 | 130 | 2.0 | 12.0 | 0.00 | 0.00 | 0.00 | 34 | 1013.5 |
| 20260505180510 | 83 | 180 | 2.0 | 12.0 | 0.00 | 0.00 | 0.00 | 32 | 1013.7 |
| 20260505180033 | 83 | 123 | 3.0 | 10.0 | 0.00 | 0.00 | 0.00 | 36 | 1013.5 |
| 20260505175506 | 83 | 163 | 0.0 | 7.0 | 0.00 | 0.00 | 0.00 | 35 | 1013.6 |
| 20260505175008 | 82 | 111 | 3.0 | 7.0 | 0.00 | 0.00 | 0.00 | 33 | 1013.6 |
| 20260505174531 | 83 | 208 | 2.0 | 8.0 | 0.00 | 0.00 | 0.00 | 36 | 1013.6 |
| 20260505174004 | 81 | 107 | 1.0 | 9.0 | 0.00 | 0.00 | 0.00 | 38 | 1013.7 |